Location: Foots Cray
(51.4000°N, 0.1167°E)
Time: 23:24:14
(UTC+00:00)

Tsikada Rocket - Pass Details

Date: 15 May 2026
Orbit: 956 x 1009 km, 82.9° (Epoch: 6 June)

Event Time Altitude Azimuth Distance (km) Brightness Sun altitude
Rises 20:36:27 0° 348° (NNW) 3,659 8.0 -7.2°
Reaches altitude 10° 20:38:57 10° 347° (NNW) 2,704 7.3 -7.5°
Maximum altitude 20:45:07 75° 264° (W) 992 4.2 -8.2°
Drops below altitude 10° 20:51:14 10° 180° (S) 2,683 5.9 -8.8°
Enters shadow 20:53:28 - 179° (S) 3,532 6.5 -9.1°
